OK,97,27,982,97,2014-10-01T01:40:00,0,28072752,184919
OK,97,27,982,97,2014-10-01T01:45:00,0,28073199,184919
OK,97,27,982,97,2014-10-01T01:50:00,0,28073647,184919
OK,97,27,982,97,2014-10-01T01:55:00,0,28073965,184919
OK,97,27,982,97,2014-10-01T02:00:00,0,28074414,184919
OK,97,27,982,97,2014-10-01T02:05:00,0,28074854,184919
OK,97,27,982,97,2014-10-01T02:10:00,0,28075303,184919
OK,97,27,982,97,2014-10-01T02:15:00,0,28075752,184919
OK,97,27,982,97,2014-10-01T02:20:00,0,28076135,184919
OK,97,27,982,97,2014-10-01T02:25:00,0,28076584,184919
OK,97,27,982,97,2014-10-01T02:30:00,0,28077033,184919
OK,97,27,982,97,2014-10-01T02:35:00,0,28077482,184919
OK,97,27,982,97,2014-10-01T02:40:00,0,28077885,184919
OK,97,27,982,97,2014-10-01T02:45:00,0,28078334,184919
OK,97,27,982,97,2014-10-01T02:50:00,0,28078779,184919
OK,97,27,982,97,2014-10-01T02:55:00,0,28079228,184919
OK,97,27,982,97,2014-10-01T03:00:00,0,28079670,184919
OK,97,27,982,97,2014-10-01T03:05:00,0,28080119,184919
OK,97,27,982,97,2014-10-01T03:10:00,0,28080453,184919
OK,97,27,982,97,2014-10-01T03:15:00,0,28080902,184919
OK,97,27,982,97,2014-10-01T03:20:00,0,28081351,184919
OK,97,27,982,97,2014-10-01T03:25:00,0,28081798,184919
OK,97,27,982,97,2014-10-01T03:30:00,0,28082247,184919
OK,97,27,982,97,2014-10-01T03:35:00,0,28082680,184919
OK,97,27,982,97,2014-10-01T03:40:00,0,28083112,184919
OK,97,27,982,97,2014-10-01T03:45:00,0,28083561,184919
OK,97,27,982,97,2014-10-01T03:50:00,0,28084010,184919
OK,97,27,982,97,2014-10-01T03:55:00,0,28084451,184919
OK,97,27,982,97,2014-10-01T04:00:00,0,28084876,184919
OK,97,27,982,97,2014-10-01T04:05:00,0,28085325,184919
OK,97,27,982,97,2014-10-01T04:10:00,0,28085770,184919
OK,97,27,982,97,2014-10-01T04:15:00,0,28086219,184919
OK,97,27,982,97,2014-10-01T04:20:00,0,28086661,184919
OK,97,27,982,97,2014-10-01T04:25:00,0,28087110,184919
OK,97,27,982,97,2014-10-01T04:30:00,0,28087555,184919
OK,97,27,982,97,2014-10-01T04:35:00,0,28088004,184919
OK,97,27,982,97,2014-10-01T04:40:00,0,28088428,184919
OK,97,27,982,97,2014-10-01T04:45:00,0,28088877,184919
OK,97,27,982,97,2014-10-01T04:50:00,0,28089307,184919
OK,97,27,982,97,2014-10-01T04:55:00,0,28089756,184919
OK,489,5,982,489,2014-10-01T05:00:00,2,28090205,184919
OK,489,5,982,489,2014-10-01T05:05:00,2,28090549,184919
OK,489,5,982,489,2014-10-01T05:10:00,0,28090998,184919
OK,135,19,982,135,2014-10-01T05:15:00,2,28091447,184919
OK,135,19,982,135,2014-10-01T05:20:00,2,28091864,184919
OK,158,16,982,158,2014-10-01T05:25:00,0,28092313,184919
OK,158,16,982,158,2014-10-01T05:30:00,0,28092757,184919
OK,158,16,982,158,2014-10-01T05:35:00,0,28093198,184919
OK,158,16,982,158,2014-10-01T05:40:00,0,28093629,184919
OK,158,16,982,158,2014-10-01T05:45:00,0,28094078,184919
OK,158,16,982,158,2014-10-01T05:50:00,0,28094489,184919
OK,158,16,982,158,2014-10-01T05:55:00,0,28094934,184919
OK,158,16,982,158,2014-10-01T06:00:00,0,28095381,184919
OK,63,41,982,63,2014-10-01T06:05:00,1,28095830,184919
OK,63,41,982,63,2014-10-01T06:10:00,1,28096243,184919
OK,63,41,982,63,2014-10-01T06:15:00,0,28096692,184919
OK,63,41,982,63,2014-10-01T06:20:00,0,28097126,184919
OK,150,17,982,150,2014-10-01T06:25:00,1,28097575,184919
OK,150,17,982,150,2014-10-01T06:30:00,1,28098024,184919
OK,150,17,982,150,2014-10-01T06:35:00,0,28098461,184919
OK,150,17,982,150,2014-10-01T06:40:00,0,28098905,184919
OK,122,21,982,122,2014-10-01T06:45:00,2,28099353,184919
OK,122,21,982,122,2014-10-01T06:50:00,2,28099696,184919
OK,122,21,982,122,2014-10-01T06:55:00,0,28100145,184919
OK,122,21,982,122,2014-10-01T07:00:00,0,28100452,184919
OK,122,21,982,122,2014-10-01T07:05:00,0,28100901,184919
OK,146,17,982,146,2014-10-01T07:10:00,3,28101272,184919
OK,141,18,982,141,2014-10-01T07:15:00,5,28101721,184919
OK,100,26,982,100,2014-10-01T07:20:00,3,28102157,184919
OK,145,18,982,145,2014-10-01T07:25:00,0,28102606,184919
OK,124,21,982,124,2014-10-01T07:30:00,2,28103034,184919
OK,125,20,982,125,2014-10-01T07:35:00,3,28103480,184919
OK,149,17,982,149,2014-10-01T07:40:00,1,28103925,184919
OK,149,17,982,149,2014-10-01T07:45:00,0,28104370,184919
OK,149,17,982,149,2014-10-01T07:50:00,0,28104811,184919
OK,149,17,982,149,2014-10-01T07:55:00,0,28105256,184919
OK,149,17,982,149,2014-10-01T08:00:00,0,28105696,184919
OK,149,17,982,149,2014-10-01T08:05:00,0,28106145,184919
OK,92,28,982,92,2014-10-01T08:10:00,1,28106582,184919
OK,92,28,982,92,2014-10-01T08:15:00,1,28106988,184919
OK,92,28,982,92,2014-10-01T08:20:00,0,28107420,184919
OK,92,28,982,92,2014-10-01T08:25:00,0,28107869,184919
OK,92,28,982,92,2014-10-01T08:30:00,0,28108308,184919
OK,77,34,982,77,2014-10-01T08:35:00,1,28108757,184919
OK,79,33,982,79,2014-10-01T08:40:00,2,28109185,184919
OK,103,25,982,103,2014-10-01T08:45:00,2,28109634,184919
OK,125,20,982,125,2014-10-01T08:50:00,3,28109977,184919
OK,160,16,982,160,2014-10-01T08:55:00,2,28110426,184919
OK,120,21,982,120,2014-10-01T09:00:00,0,28110849,184919
OK,120,21,982,120,2014-10-01T09:05:00,0,28111298,184919
OK,120,21,982,120,2014-10-01T09:10:00,0,28111727,184919
OK,90,29,982,90,2014-10-01T09:15:00,1,28112176,184919
OK,83,31,982,83,2014-10-01T09:20:00,2,28112517,184919
OK,71,36,982,71,2014-10-01T09:25:00,2,28112966,184919
OK,66,39,982,66,2014-10-01T09:30:00,3,28113390,184919
OK,74,35,982,74,2014-10-01T09:35:00,2,28113839,184919
OK,56,46,982,56,2014-10-01T09:40:00,0,28114271,184919
OK,89,29,982,89,2014-10-01T09:45:00,1,28114720,184919
OK,89,29,982,89,2014-10-01T09:50:00,0,28115074,184919
OK,99,26,982,99,2014-10-01T10:00:00,2,28115935,184919
OK,99,26,982,99,2014-10-01T10:05:00,2,28116384,184919
OK,75,34,982,75,2014-10-01T10:10:00,1,28116792,184919
OK,75,34,982,75,2014-10-01T10:15:00,1,28117241,184919
OK,78,33,982,78,2014-10-01T10:20:00,1,28117666,184919
OK,78,33,982,78,2014-10-01T10:25:00,1,28118115,184919
OK,81,32,982,81,2014-10-01T10:30:00,1,28118560,184919
OK,81,32,982,81,2014-10-01T10:35:00,1,28119007,184919
OK,142,18,982,142,2014-10-01T10:40:00,2,28119451,184919
OK,142,18,982,142,2014-10-01T10:45:00,2,28119899,184919
OK,197,13,982,197,2014-10-01T10:50:00,0,28120347,184919
OK,197,13,982,197,2014-10-01T10:55:00,0,28120796,184919
OK,80,32,982,80,2014-10-01T11:00:00,1,28121179,184919
OK,80,32,982,80,2014-10-01T11:05:00,1,28121628,184919
OK,80,32,982,80,2014-10-01T11:10:00,0,28122066,184919
OK,80,32,982,80,2014-10-01T11:15:00,0,28122515,184919
OK,80,32,982,80,2014-10-01T11:20:00,0,28122956,184919
OK,88,29,982,88,2014-10-01T11:25:00,1,28123405,184919
OK,123,21,982,123,2014-10-01T11:30:00,2,28123837,184919
OK,140,18,982,140,2014-10-01T11:35:00,2,28124286,184919
OK,125,20,982,125,2014-10-01T11:40:00,2,28124688,184919
OK,128,20,982,128,2014-10-01T11:45:00,1,28125137,184919
OK,131,20,982,131,2014-10-01T11:50:00,1,28125566,184919
OK,128,20,982,128,2014-10-01T11:55:00,0,28126015,184919
OK,131,20,982,131,2014-10-01T12:00:00,1,28126367,184919
OK,131,20,982,131,2014-10-01T12:10:00,0,28127265,184919
OK,156,16,982,156,2014-10-01T12:15:00,2,28127714,184919
OK,156,16,982,156,2014-10-01T12:20:00,2,28128142,184919
OK,88,29,982,88,2014-10-01T12:25:00,2,28128591,184919
OK,88,29,982,88,2014-10-01T12:30:00,2,28129026,184919
OK,88,29,982,88,2014-10-01T12:35:00,0,28129475,184919
OK,192,13,982,192,2014-10-01T12:40:00,2,28129909,184919
OK,192,13,982,192,2014-10-01T12:45:00,2,28130358,184919
OK,142,18,982,142,2014-10-01T12:50:00,1,28130786,184919
OK,142,18,982,142,2014-10-01T12:55:00,1,28131235,184919
OK,148,17,982,148,2014-10-01T13:00:00,1,28131672,184919
OK,157,16,982,157,2014-10-01T13:05:00,2,28132121,184919
OK,167,15,982,167,2014-10-01T13:10:00,1,28132559,184919
OK,135,19,982,135,2014-10-01T13:15:00,1,28133006,184919
OK,135,19,982,135,2014-10-01T13:20:00,1,28133444,184919
OK,86,30,982,86,2014-10-01T13:25:00,1,28133893,184919
OK,93,28,982,93,2014-10-01T13:30:00,2,28134332,184919
OK,79,33,982,79,2014-10-01T13:35:00,2,28134781,184919
OK,59,44,982,59,2014-10-01T13:40:00,1,28135200,184919
OK,59,44,982,59,2014-10-01T13:45:00,0,28135649,184919
OK,59,44,982,59,2014-10-01T13:50:00,0,28136086,184919
OK,114,22,982,114,2014-10-01T13:55:00,1,28136535,184919
OK,59,44,982,59,2014-10-01T14:00:00,0,28136975,184919
OK,143,18,982,143,2014-10-01T14:05:00,2,28137424,184919
OK,139,18,982,139,2014-10-01T14:10:00,3,28137858,184919
OK,125,20,982,125,2014-10-01T14:15:00,1,28138307,184919
OK,125,20,982,125,2014-10-01T14:20:00,0,28138735,184919
OK,141,18,982,141,2014-10-01T14:25:00,1,28139184,184919
OK,131,20,982,131,2014-10-01T14:30:00,2,28139595,184919
OK,122,21,982,122,2014-10-01T14:35:00,1,28140044,184919
OK,178,14,982,178,2014-10-01T14:40:00,1,28140486,184919
OK,178,14,982,178,2014-10-01T14:45:00,1,28140935,184919
OK,95,27,982,95,2014-10-01T14:50:00,1,28141361,184919
OK,108,24,982,108,2014-10-01T14:55:00,2,28141810,184919
OK,121,21,982,121,2014-10-01T15:00:00,1,28142238,184919
OK,121,21,982,121,2014-10-01T15:05:00,0,28142687,184919
OK,121,21,982,121,2014-10-01T15:10:00,0,28143114,184919
OK,121,21,982,121,2014-10-01T15:15:00,0,28143563,184919
OK,121,21,982,121,2014-10-01T15:20:00,0,28144011,184919
OK,121,21,982,121,2014-10-01T15:25:00,0,28144460,184919
OK,121,21,982,121,2014-10-01T15:30:00,0,28144881,184919
OK,114,22,982,114,2014-10-01T15:35:00,1,28145295,184919
OK,114,22,982,114,2014-10-01T15:40:00,1,28145744,184919
OK,114,22,982,114,2014-10-01T15:45:00,0,28146193,184919
OK,114,22,982,114,2014-10-01T15:50:00,0,28146642,184919
OK,114,22,982,114,2014-10-01T15:55:00,0,28147050,184919
OK,121,21,982,121,2014-10-01T16:00:00,1,28147494,184919
OK,121,21,982,121,2014-10-01T16:05:00,1,28147943,184919
OK,121,21,982,121,2014-10-01T16:10:00,0,28148344,184919
OK,121,21,982,121,2014-10-01T16:15:00,0,28148793,184919
OK,121,21,982,121,2014-10-01T16:20:00,0,28149232,184919
OK,121,21,982,121,2014-10-01T16:25:00,0,28149681,184919
OK,121,21,982,121,2014-10-01T16:30:00,0,28150107,184919
OK,121,21,982,121,2014-10-01T16:35:00,0,28150556,184919
OK,121,21,982,121,2014-10-01T16:40:00,0,28150974,184919
OK,74,35,982,74,2014-10-01T16:45:00,2,28151423,184919
OK,62,42,982,62,2014-10-01T16:50:00,3,28151872,184919
OK,46,56,982,46,2014-10-01T17:00:00,0,28152321,184919
OK,46,56,982,46,2014-10-01T17:05:00,0,28152767,184919
OK,46,56,982,46,2014-10-01T17:10:00,0,28153214,184919
OK,46,56,982,46,2014-10-01T17:15:00,0,28153663,184919
OK,46,56,982,46,2014-10-01T17:20:00,0,28154073,184919
OK,46,56,982,46,2014-10-01T17:25:00,0,28154522,184919
OK,64,40,982,64,2014-10-01T17:30:00,1,28154964,184919
OK,64,40,982,64,2014-10-01T17:35:00,0,28155412,184919
OK,64,40,982,64,2014-10-01T17:40:00,0,28155830,184919
OK,64,40,982,64,2014-10-01T17:45:00,0,28156279,184919
OK,64,40,982,64,2014-10-01T17:50:00,0,28156727,184919
OK,64,40,982,64,2014-10-01T17:55:00,0,28157166,184919
OK,64,40,982,64,2014-10-01T18:00:00,0,28157596,184919
OK,64,40,982,64,2014-10-01T18:05:00,0,28158044,184919
OK,64,40,982,64,2014-10-01T18:10:00,0,28158488,184919
OK,64,40,982,64,2014-10-01T18:15:00,0,28158934,184919
OK,64,40,982,64,2014-10-01T18:20:00,0,28159380,184919
OK,64,40,982,64,2014-10-01T18:25:00,0,28159715,184919
OK,64,40,982,64,2014-10-01T18:30:00,0,28160164,184919
OK,64,40,982,64,2014-10-01T18:35:00,0,28160613,184919
OK,64,40,982,64,2014-10-01T18:40:00,0,28161051,184919
OK,64,40,982,64,2014-10-01T18:45:00,0,28161500,184919
OK,64,40,982,64,2014-10-01T18:50:00,0,28161917,184919
OK,64,40,982,64,2014-10-01T18:55:00,0,28162366,184919
OK,64,40,982,64,2014-10-01T19:00:00,0,28162760,184919
OK,147,17,982,147,2014-10-01T19:05:00,1,28163199,184919
OK,147,17,982,147,2014-10-01T19:10:00,1,28163647,184919
OK,147,17,982,147,2014-10-01T19:15:00,0,28164096,184919
OK,147,17,982,147,2014-10-01T19:20:00,0,28164527,184919
OK,147,17,982,147,2014-10-01T19:25:00,0,28164976,184919
OK,147,17,982,147,2014-10-01T19:30:00,0,28165401,184919
OK,118,22,982,118,2014-10-01T19:35:00,1,28165849,184919
OK,107,24,982,107,2014-10-01T19:40:00,3,28166290,184919
OK,113,23,982,113,2014-10-01T19:45:00,2,28166652,184919
OK,88,29,982,88,2014-10-01T19:50:00,2,28167101,184919
OK,62,42,982,62,2014-10-01T19:55:00,1,28167530,184919
OK,62,42,982,62,2014-10-01T20:00:00,0,28167963,184919
OK,62,42,982,62,2014-10-01T20:05:00,0,28168412,184919
OK,52,50,982,52,2014-10-01T20:10:00,1,28168857,184919
OK,100,26,982,100,2014-10-01T20:15:00,1,28169306,184919
OK,100,26,982,100,2014-10-01T20:20:00,1,28169754,184919
OK,100,26,982,100,2014-10-01T20:25:00,0,28170180,184919
OK,100,26,982,100,2014-10-01T20:30:00,0,28170625,184919
OK,100,26,982,100,2014-10-01T20:35:00,0,28171073,184919
OK,100,26,982,100,2014-10-01T20:40:00,0,28171510,184919
OK,100,26,982,100,2014-10-01T20:45:00,0,28171956,184919
OK,100,26,982,100,2014-10-01T20:50:00,0,28172404,184919
OK,100,26,982,100,2014-10-01T20:55:00,0,28172850,184919
OK,100,26,982,100,2014-10-01T21:00:00,0,28173296,184919
OK,100,26,982,100,2014-10-01T21:05:00,0,28173745,184919
OK,100,26,982,100,2014-10-01T21:10:00,0,28174186,184919
OK,68,38,982,68,2014-10-01T21:15:00,1,28174635,184919
OK,113,23,982,113,2014-10-01T21:20:00,1,28175061,184919
OK,113,23,982,113,2014-10-01T21:25:00,1,28175457,184919
OK,113,23,982,113,2014-10-01T21:30:00,0,28175906,184919
OK,113,23,982,113,2014-10-01T21:35:00,0,28176355,184919
OK,113,23,982,113,2014-10-01T21:40:00,0,28176804,184919
OK,113,23,982,113,2014-10-01T21:45:00,0,28177160,184919
OK,113,23,982,113,2014-10-01T21:50:00,0,28177600,184919
OK,113,23,982,113,2014-10-01T21:55:00,0,28178046,184919
OK,113,23,982,113,2014-10-01T22:00:00,0,28178495,184919
OK,113,23,982,113,2014-10-01T22:05:00,0,28178942,184919
OK,113,23,982,113,2014-10-01T22:10:00,0,28179376,184919
OK,113,23,982,113,2014-10-01T22:15:00,0,28179819,184919
OK,113,23,982,113,2014-10-01T22:20:00,0,28180266,184919
OK,113,23,982,113,2014-10-01T22:25:00,0,28180664,184919
OK,113,23,982,113,2014-10-01T22:30:00,0,28181113,184919
OK,113,23,982,113,2014-10-01T22:35:00,0,28181537,184919
OK,113,23,982,113,2014-10-01T22:40:00,0,28181985,184919
OK,113,23,982,113,2014-10-01T22:45:00,0,28182432,184919
OK,113,23,982,113,2014-10-01T22:50:00,0,28182881,184919
OK,113,23,982,113,2014-10-01T22:55:00,0,28183298,184919
OK,113,23,982,113,2014-10-01T23:00:00,0,28183731,184919
OK,113,23,982,113,2014-10-01T23:05:00,0,28184176,184919
OK,113,23,982,113,2014-10-01T23:10:00,0,28184625,184919
OK,113,23,982,113,2014-10-01T23:15:00,0,28185060,184919
OK,113,23,982,113,2014-10-01T23:20:00,0,28185508,184919
OK,113,23,982,113,2014-10-01T23:25:00,0,28185939,184919
OK,113,23,982,113,2014-10-01T23:30:00,0,28186331,184919
OK,113,23,982,113,2014-10-01T23:40:00,0,28187178,184919
OK,113,23,982,113,2014-10-01T23:55:00,0,28188510,184919
OK,113,23,982,113,2014-10-02T00:05:00,0,28189395,184919
OK,113,23,982,113,2014-10-02T00:10:00,0,28189817,184919
OK,113,23,982,113,2014-10-02T00:15:00,0,28190266,184919
OK,113,23,982,113,2014-10-02T00:20:00,0,28190619,184919
OK,113,23,982,113,2014-10-02T00:30:00,0,28191517,184919
OK,113,23,982,113,2014-10-02T00:35:00,0,28191823,184919
OK,113,23,982,113,2014-10-02T00:40:00,0,28192272,184919
OK,113,23,982,113,2014-10-02T00:45:00,0,28192705,184919
OK,113,23,982,113,2014-10-02T00:50:00,0,28193149,184919
OK,113,23,982,113,2014-10-02T00:55:00,0,28193516,184919
OK,113,23,982,113,2014-10-02T01:05:00,0,28194414,184919
OK,113,23,982,113,2014-10-02T01:10:00,0,28194863,184919
OK,113,23,982,113,2014-10-02T01:15:00,0,28195099,184919
OK,113,23,982,113,2014-10-02T01:25:00,0,28195997,184919
OK,113,23,982,113,2014-10-02T01:30:00,0,28196282,184919
OK,113,23,982,113,2014-10-02T01:35:00,0,28196730,184919
OK,113,23,982,113,2014-10-02T01:40:00,0,28197153,184919
OK,113,23,982,113,2014-10-02T01:45:00,0,28197602,184919
OK,113,23,982,113,2014-10-02T01:50:00,0,28198050,184919
OK,113,23,982,113,2014-10-02T01:55:00,0,28198498,184919
OK,113,23,982,113,2014-10-02T02:00:00,0,28198947,184919
OK,113,23,982,113,2014-10-02T02:05:00,0,28199319,184919
OK,113,23,982,113,2014-10-02T02:10:00,0,28199761,184919
OK,113,23,982,113,2014-10-02T02:15:00,0,28200203,184919
OK,113,23,982,113,2014-10-02T02:20:00,0,28200646,184919
OK,113,23,982,113,2014-10-02T02:25:00,0,28201095,184919
OK,113,23,982,113,2014-10-02T02:30:00,0,28201526,184919
OK,113,23,982,113,2014-10-02T02:45:00,0,28202424,184919
OK,113,23,982,113,2014-10-02T02:50:00,0,28202866,184919
OK,113,23,982,113,2014-10-02T02:55:00,0,28203314,184919
OK,113,23,982,113,2014-10-02T03:00:00,0,28203749,184919
OK,113,23,982,113,2014-10-02T03:10:00,0,28204198,184919
OK,113,23,982,113,2014-10-02T03:25:00,0,28204647,184919
OK,113,23,982,113,2014-10-02T03:30:00,0,28205096,184919
OK,113,23,982,113,2014-10-02T03:35:00,0,28205524,184919
OK,113,23,982,113,2014-10-02T03:40:00,0,28205971,184919
OK,113,23,982,113,2014-10-02T03:45:00,0,28206354,184919
OK,113,23,982,113,2014-10-02T03:55:00,0,28207252,184919
OK,113,23,982,113,2014-10-02T04:00:00,0,28207672,184919
OK,113,23,982,113,2014-10-02T04:05:00,0,28208120,184919
OK,113,23,982,113,2014-10-02T04:10:00,0,28208547,184919
OK,113,23,982,113,2014-10-02T04:15:00,0,28208996,184919
OK,113,23,982,113,2014-10-02T04:20:00,0,28209434,184919
OK,113,23,982,113,2014-10-02T04:25:00,0,28209883,184919
OK,113,23,982,113,2014-10-02T04:30:00,0,28210306,184919
OK,113,23,982,113,2014-10-02T04:35:00,0,28210755,184919
OK,113,23,982,113,2014-10-02T04:40:00,0,28211180,184919
OK,113,23,982,113,2014-10-02T04:45:00,0,28211624,184919
OK,113,23,982,113,2014-10-02T04:50:00,0,28212002,184919
OK,113,23,982,113,2014-10-02T04:55:00,0,28212451,184919
OK,113,23,982,113,2014-10-02T05:00:00,0,28212880,184919
OK,113,23,982,113,2014-10-02T05:05:00,0,28213329,184919
OK,113,23,982,113,2014-10-02T05:10:00,0,28213767,184919
OK,113,23,982,113,2014-10-02T05:15:00,0,28214216,184919
OK,113,23,982,113,2014-10-02T05:20:00,0,28214629,184919
OK,113,23,982,113,2014-10-02T05:25:00,0,28215078,184919
OK,113,23,982,113,2014-10-02T05:30:00,0,28215494,184919
OK,113,23,982,113,2014-10-02T05:35:00,0,28215943,184919
OK,113,23,982,113,2014-10-02T05:40:00,0,28216282,184919
OK,113,23,982,113,2014-10-02T05:45:00,0,28216722,184919
OK,113,23,982,113,2014-10-02T05:50:00,0,28217169,184919
OK,113,23,982,113,2014-10-02T05:55:00,0,28217618,184919
OK,113,23,982,113,2014-10-02T06:00:00,0,28218057,184919
OK,113,23,982,113,2014-10-02T06:05:00,0,28218506,184919
OK,113,23,982,113,2014-10-02T06:10:00,0,28218926,184919
OK,113,23,982,113,2014-10-02T06:15:00,0,28219375,184919
OK,113,23,982,113,2014-10-02T06:20:00,0,28219748,184919
OK,113,23,982,113,2014-10-02T06:25:00,0,28220197,184919
OK,113,23,982,113,2014-10-02T06:30:00,0,28220631,184919
OK,113,23,982,113,2014-10-02T06:35:00,0,28221080,184919
OK,113,23,982,113,2014-10-02T06:40:00,0,28221461,184919
OK,80,32,982,80,2014-10-02T06:45:00,1,28221747,184919
OK,89,29,982,89,2014-10-02T07:00:00,1,28222341,184919
OK,89,29,982,89,2014-10-02T07:05:00,0,28222790,184919
OK,80,32,982,80,2014-10-02T07:10:00,2,28223221,184919
OK,80,32,982,80,2014-10-02T07:15:00,1,28223656,184919
OK,80,32,982,80,2014-10-02T07:20:00,0,28224104,184919
OK,80,32,982,80,2014-10-02T07:25:00,0,28224459,184919
OK,80,32,982,80,2014-10-02T07:30:00,0,28224908,184919
OK,109,24,982,109,2014-10-02T07:35:00,0,28225357,184919
OK,109,24,982,109,2014-10-02T07:40:00,0,28225679,184919
OK,142,18,982,142,2014-10-02T07:50:00,1,28226569,184919
OK,142,18,982,142,2014-10-02T07:55:00,0,28227018,184919
OK,142,18,982,142,2014-10-02T08:00:00,0,28227433,184919
OK,129,20,982,129,2014-10-02T08:05:00,1,28227882,184919
OK,129,20,982,129,2014-10-02T08:10:00,1,28228241,184919
OK,124,21,982,124,2014-10-02T08:20:00,0,28229100,184919
OK,121,21,982,121,2014-10-02T08:25:00,1,28229549,184919
OK,121,21,982,121,2014-10-02T08:30:00,0,28229899,184919
OK,136,19,982,136,2014-10-02T08:35:00,1,28230348,184919
OK,136,19,982,136,2014-10-02T08:40:00,0,28230714,184919
OK,136,19,982,136,2014-10-02T08:45:00,0,28231163,184919
OK,151,17,982,151,2014-10-02T08:50:00,2,28231586,184919
OK,151,17,982,151,2014-10-02T08:55:00,2,28232035,184919
OK,151,17,982,151,2014-10-02T09:00:00,0,28232377,184919
OK,151,17,982,151,2014-10-02T09:10:00,0,28232826,184919
OK,151,17,982,151,2014-10-02T09:15:00,0,28233275,184919
OK,151,17,982,151,2014-10-02T09:20:00,0,28233699,184919
OK,126,20,982,126,2014-10-02T09:25:00,0,28234148,184919
OK,126,20,982,126,2014-10-02T09:30:00,0,28234481,184919
OK,126,20,982,126,2014-10-02T09:40:00,0,28235357,184919
OK,147,17,982,147,2014-10-02T09:45:00,0,28235806,184919
OK,147,17,982,147,2014-10-02T09:50:00,0,28236249,184919
OK,147,17,982,147,2014-10-02T09:55:00,0,28236696,184919
OK,147,17,982,147,2014-10-02T10:00:00,0,28237099,184919
OK,147,17,982,147,2014-10-02T10:05:00,0,28237547,184919
OK,87,30,982,87,2014-10-02T10:10:00,2,28237995,184919
OK,48,54,982,48,2014-10-02T10:15:00,1,28238442,184919
OK,48,54,982,48,2014-10-02T10:20:00,0,28238883,184919
OK,150,17,982,150,2014-10-02T10:25:00,1,28239332,184919
OK,150,17,982,150,2014-10-02T10:30:00,0,28239762,184919
OK,150,17,982,150,2014-10-02T10:35:00,0,28240211,184919
OK,156,16,982,156,2014-10-02T10:40:00,1,28240655,184919
OK,156,16,982,156,2014-10-02T10:45:00,1,28241104,184919
OK,156,16,982,156,2014-10-02T10:50:00,0,28241536,184919
OK,50,52,982,50,2014-10-02T10:55:00,1,28241984,184919
OK,50,52,982,50,2014-10-02T11:00:00,0,28242380,184919
OK,50,52,982,50,2014-10-02T11:05:00,0,28242829,184919
OK,144,18,982,144,2014-10-02T11:10:00,2,28243278,184919
OK,145,18,982,145,2014-10-02T11:15:00,1,28243604,184919
OK,142,18,982,142,2014-10-02T11:20:00,3,28244041,184919
OK,156,16,982,156,2014-10-02T11:25:00,1,28244470,184919
OK,156,16,982,156,2014-10-02T11:30:00,0,28244919,184919
OK,156,16,982,156,2014-10-02T11:35:00,0,28245368,184919
OK,156,16,982,156,2014-10-02T11:40:00,0,28245774,184919
OK,156,16,982,156,2014-10-02T11:45:00,0,28246223,184919
OK,156,16,982,156,2014-10-02T11:50:00,0,28246660,184919
OK,156,16,982,156,2014-10-02T11:55:00,0,28247109,184919
OK,156,16,982,156,2014-10-02T12:00:00,0,28247555,184919
OK,156,16,982,156,2014-10-02T12:05:00,0,28247985,184919
OK,156,16,982,156,2014-10-02T12:10:00,0,28248434,184919
OK,223,11,982,223,2014-10-02T12:15:00,1,28248881,184919
OK,223,11,982,223,2014-10-02T12:20:00,1,28249309,184919
OK,103,25,982,103,2014-10-02T12:25:00,2,28249753,184919
OK,105,24,982,105,2014-10-02T12:30:00,1,28250172,184919
OK,105,24,982,105,2014-10-02T12:35:00,0,28250570,184919
OK,116,22,982,116,2014-10-02T13:20:00,3,28251895,184919
OK,179,14,982,179,2014-10-02T13:30:00,2,28252479,184919
OK,106,24,982,106,2014-10-02T13:35:00,0,28252921,184919
OK,106,24,982,106,2014-10-02T13:40:00,0,28253338,184919
OK,79,33,982,79,2014-10-02T13:50:00,1,28254192,184919
OK,79,33,982,79,2014-10-02T13:55:00,0,28254513,184919
OK,79,33,982,79,2014-10-02T14:10:00,0,28255090,184919
OK,175,14,982,175,2014-10-02T14:15:00,1,28255539,184919
OK,175,14,982,175,2014-10-02T14:20:00,1,28255967,184919
OK,175,14,982,175,2014-10-02T14:25:00,0,28256416,184919
OK,175,14,982,175,2014-10-02T14:30:00,0,28256844,184919
OK,175,14,982,175,2014-10-02T14:35:00,0,28257293,184919
OK,175,14,982,175,2014-10-02T14:40:00,0,28257734,184919
OK,111,23,982,111,2014-10-02T14:45:00,1,28258182,184919
OK,108,24,982,108,2014-10-02T14:50:00,3,28258615,184919
OK,107,24,982,107,2014-10-02T14:55:00,2,28259061,184919
OK,139,18,982,139,2014-10-02T15:00:00,1,28259510,184919
OK,127,20,982,127,2014-10-02T15:05:00,2,28259957,184919
OK,106,24,982,106,2014-10-02T15:10:00,2,28260390,184919
OK,78,33,982,78,2014-10-02T15:15:00,1,28260839,184919
OK,78,33,982,78,2014-10-02T15:20:00,0,28261279,184919
OK,78,33,982,78,2014-10-02T15:25:00,0,28261661,184919
OK,78,33,982,78,2014-10-02T15:30:00,0,28262091,184919
OK,78,33,982,78,2014-10-02T15:40:00,0,28262984,184919
OK,208,12,982,208,2014-10-02T15:45:00,2,28263422,184919
OK,208,12,982,208,2014-10-02T15:50:00,2,28263863,184919
OK,208,12,982,208,2014-10-02T15:55:00,0,28264265,184919